Flag for Austria Weather past 2 weeks in Vöcklabruck, Upper Austria, Austria

Now
58 °F

Cool.


Feels Like: 59 °F
Forecast: 43 / 63 °F
Wind: 3 mph from Southwest

Location: Kremsmuenster

Current Time: Aug 23, 2014 at 10:03:54 PM

Latest Report: Aug 23, 2014 at 9:00 PM


Visibility: N/A

Pressure: 29.96 "Hg

Humidity: 81%

Dew point: 52 °F

Location of VöcklabruckLocation

Historic Weather in Vöcklabruck — Graph

°F

Vöcklabruck temperature yesterday

Maximum temperature yesterday: 73 °F (at 5:00 PM)
Minimum temperature yesterday: 55 °F (at 8:00 AM)
Average temperature yesterday: 63 °F

Past Weeks' High & Low Weather Summary

 TemperatureHumidityPressure
High84 °F (Aug 10, 5:00 PM)99% (Aug 10, 7:00 AM)30.15 "Hg (Aug 10, 7:00 AM)
Low52 °F (Aug 21, 6:00 AM)39% (Aug 17, 5:00 PM)29.67 "Hg (Aug 13, 7:00 PM)
Average63 °F77%29.96 "Hg
* Reported Aug 8 8:00 PM — Aug 23 8:00 PM, Vöcklabruck, Weather by CustomWeather, © 2014

Note: Actual official high and low records may vary slightly from our data, if they occured in-between our weather recording intervals... More about our weather records

Advertising

Vöcklabruck weather history for previous 24 hours

 ConditionsComfort  
Time TempWeatherWind HumidityBarometerVisibility
8:00 PM
Aug 23
59 °FCool.5 mph80%29.95 "HgN/A
7:00 PM60 °FCool.3 mph78%29.94 "HgN/A
6:00 PM60 °FCool.5 mph75%29.95 "HgN/A
5:00 PM61 °FOvercast.5 mph82%29.96 "Hg6 mi
4:00 PM60 °FCool.3 mph79%29.97 "HgN/A
3:00 PM61 °FCool.2 mph79%29.97 "HgN/A
2:00 PM63 °FFog.3 mph76%29.97 "HgN/A
1:00 PM65 °FMild.2 mph72%29.97 "HgN/A
12:00 PM65 °FMild.No wind71%29.97 "HgN/A
11:00 AM64 °FMild.1 mph76%29.97 "HgN/A
10:00 AM63 °FMild.No wind81%29.97 "HgN/A
9:00 AM60 °FCool.1 mph87%29.98 "HgN/A
8:00 AM59 °FOvercast.1 mph89%29.98 "Hg6 mi
7:00 AM59 °FLight rain. Overcast.1 mph89%29.98 "Hg6 mi
6:00 AM59 °FCool.No wind87%29.98 "HgN/A
5:00 AM59 °FCool.1 mph84%29.97 "HgN/A
4:00 AM59 °FCool.5 mph85%29.98 "HgN/A
3:00 AM60 °FCool.5 mph82%29.98 "HgN/A
2:00 AM61 °FCool.5 mph83%29.98 "HgN/A
1:00 AM62 °FCool.5 mph81%29.98 "HgN/A
12:00 AM62 °FMild.3 mph81%29.98 "HgN/A
11:00 PM
Aug 22
65 °FMild.2 mph74%29.97 "HgN/A
10:00 PM66 °FMild.3 mph64%29.96 "HgN/A
Weather by CustomWeather, © 2014

See weather overviewHow to use our weather pages